カタログに戻る

LIMASAT

運用中アマチュア無線VLEO
NORAD 65272·PAYLOAD·🇺🇸 United States

打ち上げ Aug 22, 2025 から Cape Canaveral Space Force Station

Loading…

次のパス (今後24時間)

TLE

古いSource: Mike McCants

元期: Sep 8, 2025, 19:27 UTC

1 65272U 25183B   25251.81098455 0.00075783  00000-0  38663-3 0    08
2 65272  49.5221 185.8300 0006423  21.0132 338.9866 15.80547521    07

AllMySatでLIMASATをリアルタイム追跡

Download on the App Store